Location: Brompton
(51.4000°N, 0.5333°E)
Time: 04:07:37
(UTC+00:00)

Cosmos 1867 - Pass Details

Date: 11 May 2021
Orbit: 773 x 802 km, 65.0° (Epoch: 13 June)

Event Time Altitude Azimuth Distance (km) Brightness Sun altitude
Exits shadow 23:25:57 37° 143° (SE) 1,231 4.1 -20.2°
Maximum altitude 23:26:52 39° 119° (ESE) 1,174 4.1 -20.2°
Drops below altitude 10° 23:31:55 10° 52° (NE) 2,382 6.5 -20.3°
Sets 23:34:29 0° 45° (NE) 3,319 7.4 -20.3°
